SCP
0 0 0 0 0 0 0 0 0 0 0 0 0 0 0 0 0 0 0 0 0 0 0 0 0 0 0 0 0 0 0 0 0 0 0 0 0 0 0 0 0 0 0
0 0 0 0 0 0 0 0 0 0 0 0 0 0 0 0 0 0 0 0 0 0 0 0 0 0 0 0 0 0 0 0 0 0 0 0 0 0 0 0 0 0 0
0 0 0 0 0 0 0 0 0 0 0 0 0 0 0 0 0 0 0 0 0 0 0 0 0 0 0 0 0 0 0 0 0 0 0 0 0 0 0 0 0 0 0
0 0 0 0 0 0 0 0 0 0 0 0 0 0 0 0 0 0 0 0 0 0 0 0 0 0 0 0 0 0 0 0 0 0 0 0 0 0 0 0 0 0 0
0 0 0 0 0 0 0 0 0 0 0 0 0 0 0 0 0 0 0 0 0 0 0 0 0 0 0 0 0 0 0 0 0 0 0 0 0 0 0 0 0 0 0
0 0 0 0 0 0 0 0 0 0 0 0 0 0 0 0 0 0 0 0 0 0 0 0 0 0 0 0 0 0 0 0 0 0 0 0 0 0 0 0 0 0 0
0 0 0 0 0 0 0 0 0 0 0 0 0 0 0 0 0 0 0 0 0 0 0 0 0 0 0 0 0 0 0 0 0 0 0 0 0 0 0 0 0 0 0
0 0 0 0 0 0 0 0 0 0 0 0 0 0 0 0 0 0 0 0 0 0 0 0 0 0 0 0 0 0 0 0 0 0 0 0 0 0 0 0 0 0 0
0 0 0 0 0 0 0 0 0 0 0 0 0 0 0 0 0 0 0 0 0 0 0 0 0 0 0 0 0 0 0 0 0 0 0 0 0 0 0 0 0 0 0
0 0 0 0 0 0 0 0 0 0 0 0 0 0 0 0 0 0 0 0 0 0 0 0 0 0 0 0 0 0 0 0 0 0 0 0 0 0 0 0 0 0 0
0 0 0 0 0 0 0 0 0 0 0 0 0 0 0 0 0 0 0 0 0 0 0 0 0 0 0 0 0 0 0 0 0 0 0 0 0 0 0 0 0 0 0
0 0 0 0 0 0 0 0 0 0 0 0 0 0 0 0 0 0 0 0 0 0 0 0 0 0 0 0 0 0 0 0 0 0 0 0 0 0 0 0 0 0 0
0 0 0 0 0 0 0 0 0 0 0 0 0 0 0 0 0 0 0 0 0 0 0 0 0 0 0 0 0 0 0 0 0 0 0 0 0 0 0 0 0 0 0
0 0 0 0 0 0 0 0 0 0 0 0 0 0 0 0 0 0 0 0 0 0 0 0 0 0 0 0 0 0 0 0 0 0 0 0 0 0 0 0 0 0 0
0 0 0 0 0 0 0 0 0 0 0 0 0 0 0 0 0 0 0 0 0 0 0 0 0 0 0 0 0 0 0 0 0 0 0 0 0 0 0 0 0 0 0
0 0 0 0 0 0 0 0 0 0 0 0 0 0 0 0 0 0 0 0 0 0 0 0 0 0 0 0 0 0 0 0 0 0 0 0 0 0 0 0 0 0 0
0 0 0 0 0 0 0 0 0 0 0 0 0 0 0 0 0 0 0 0 0 0 0 0 0 0 0 0 0 0 0 0 0 0 0 0 0 0 0 0 0 0 0
0 0 0 0 0 0 0 0 0 0 0 0 0 0 0 0 0 0 0 0 0 0 0 0 0 0 0 0 0 0 0 0 0 0 0 0 0 0 0 0 0 0 0
0 0 0 0 0 0 0 0 0 0 0 0 0 0 0 0 0 0 0 0 0 0 0 0 0 0 0 0 0 0 0 0 0 0 0 0 0 0 0 0 0 0 0
0 0 0 0 0 0 0 0 0 0 0 0 0 0 0 0 0 0 0 0 0 0 0 0 0 0 0 0 0 0 0 0 0 0 0 0 0 0 0 0 0 0 0
0 0 0 0 0 0 0 0 0 0 0 0 0 0 0 0 0 0 0 0 0 0 0 0 0 0 0 0 0 0 0 0 0 0 0 0 0 0 0 0 0 0 0
0 0 0 0 0 0 0 0 0 0 0 0 0 0 0 0 0 0 0 0 0 0 0 0 0 0 0 0 0 0 0 0 0 0 0 0 0 0 0 0 0 0 0
0 0 0 0 0 0 0 0 0 0 0 0 0 0 0 0 0 0 0 0 0 0 0 0 0 0 0 0 0 0 0 0 0 0 0 0 0 0 0 0 0 0 0
0 0 0 0 0 0 0 0 0 0 0 0 0 0 0 0 0 0 0 0 0 0 0 0 0 0 0 0 0 0 0 0 0 0 0 0 0 0 0 0 0 0 0
0 0 1 1 1 0 0 0 0 0 0 0 0 0 0 0 0 0 0 0 0 0 0 0 0 0 0 0 0 0 0 0 0 0 0 0 0 0 0 0 0 0 0
1 1 1 1 1 1 0 0 0 0 0 0 0 0 0 0 0 0 0 0 0 0 0 0 0 0 0 0 0 0 0 0 0 0 0 0 0 0 0 0 0 0 0
Wind_Speed
1 2 8 9 10 10 10 11 10 10 11 11 11 11 12 13 13 14 14 15 16 16 14 15 17 17 17 17 18 18 17 17 16 16 15 15 14 14 13 13 12 9 13
4 3 9 10 10 10 10 11 11 10 10 11 11 11 12 13 14 14 15 16 16 16 16 16 17 17 17 17 17 17 17 16 16 15 15 13 13 13 13 13 12 8 13
6 4 7 10 10 10 10 11 11 10 11 12 12 12 13 14 15 15 15 16 17 16 16 16 16 17 17 17 17 17 16 15 15 14 13 7 8 13 12 12 13 13 13
7 5 7 11 10 11 10 10 11 11 11 12 12 12 13 14 15 16 16 16 17 17 16 16 16 16 16 16 16 15 15 14 14 13 6 5 6 11 12 12 12 12 12
6 5 7 11 11 11 10 10 11 12 11 12 12 12 13 14 15 16 16 17 17 17 17 16 16 16 16 15 15 14 13 13 13 10 5 5 5 10 11 11 11 12 11
6 5 7 11 11 11 11 11 11 12 12 12 12 12 13 14 15 16 16 16 16 16 16 15 15 15 14 14 14 13 11 11 10 6 5 5 4 10 11 11 11 11 12
6 5 7 11 11 11 10 11 11 11 12 12 12 13 13 14 15 16 16 16 16 16 15 14 14 13 12 12 12 11 10 10 7 5 5 4 5 11 11 11 11 11 11
8 6 6 11 11 11 10 10 10 11 11 11 12 13 13 14 15 14 15 15 15 14 14 13 12 11 11 10 10 9 8 9 8 6 5 4 8 11 11 11 10 10 10
7 6 4 5 7 10 11 10 10 10 10 11 12 12 13 13 13 13 14 13 13 12 12 11 10 9 9 8 8 7 6 8 6 4 6 4 9 11 11 11 11 10 10
6 5 4 4 3 4 5 9 10 9 10 11 11 12 12 12 12 12 11 11 11 10 10 9 9 8 7 7 6 5 6 8 4 4 3 6 12 12 11 11 11 10 9
5 4 4 4 4 4 4 7 7 9 9 9 9 11 9 5 5 6 9 10 10 9 8 8 7 7 6 5 5 4 5 3 4 3 3 8 12 12 12 11 11 10 10
5 4 3 4 4 4 4 3 2 3 3 3 3 4 3 3 3 5 8 9 8 8 7 6 6 5 3 2 2 3 2 3 3 3 4 10 12 12 11 11 11 10 10
7 6 4 4 4 4 3 3 2 2 2 2 3 3 3 2 2 2 2 3 3 4 3 3 3 2 2 1 1 2 2 3 2 2 4 10 11 12 12 11 11 10 10
7 6 5 5 4 4 4 3 3 2 2 2 2 3 3 2 2 2 1 1 1 1 2 1 1 2 2 2 2 3 3 3 2 2 4 11 10 10 11 11 11 10 10
7 6 5 5 5 4 4 3 3 3 2 2 2 2 3 3 2 2 1 1 1 1 2 2 2 2 2 2 3 4 4 4 4 3 3 11 11 11 11 11 11 11 11
7 6 5 6 5 5 4 3 3 3 3 2 2 3 3 3 2 2 2 2 2 2 2 2 3 2 2 2 3 3 4 4 4 4 3 6 11 10 10 11 11 11 11
7 6 6 6 5 5 4 4 3 2 2 2 2 2 3 3 2 2 2 1 1 2 2 2 2 1 2 2 2 3 3 4 4 4 4 3 4 8 10 10 10 10 10
8 7 6 6 5 4 4 3 2 2 2 2 2 2 2 2 2 2 2 1 2 2 2 2 2 1 1 1 1 2 2 3 4 4 4 4 3 4 7 10 10 9 10
8 7 6 5 5 4 4 3 2 2 2 2 2 2 2 2 2 2 1 1 1 2 2 2 2 2 2 1 2 2 2 2 3 4 4 4 4 4 3 6 9 9 9
8 7 6 6 5 4 3 3 2 1 1 1 1 2 2 2 2 2 1 1 2 2 1 1 2 1 2 2 1 1 1 2 2 3 4 4 4 6 5 5 4 6 9
7 7 7 6 5 4 3 2 2 1 1 1 1 2 2 2 2 2 1 1 2 2 2 2 2 1 1 1 2 1 1 0 1 2 2 3 4 5 4 5 4 3 3
8 8 7 7 6 5 3 3 2 2 1 2 1 1 2 2 2 3 2 2 2 2 2 2 2 1 1 1 2 1 1 3 2 2 2 3 4 3 4 5 4 5 4
9 9 8 7 6 5 4 3 2 2 1 1 0 1 1 2 2 2 2 2 2 2 2 2 2 3 1 0 2 3 2 2 2 2 2 2 3 3 4 4 5 5 5
10 8 7 7 6 5 5 4 4 3 2 2 2 1 1 1 2 2 2 2 2 1 1 1 1 2 2 1 1 1 2 3 2 1 2 2 2 2 3 3 3 3 4
10 9 7 7 6 5 5 5 4 3 2 1 1 1 1 1 1 2 2 2 2 1 1 1 1 1 2 2 1 1 1 0 1 2 1 2 2 2 2 3 2 2 3
8 8 8 8 6 6 5 5 5 4 3 3 2 2 1 0 0 1 2 1 2 1 2 1 1 1 1 2 1 1 2 1 1 2 2 2 2 2 1 1 2 2 2
Wind_Direction
120 135 110 104 101 97 92 89 88 90 94 96 99 102 107 115 118 123 127 127 126 125 124 129 132 132 132 134 137 138 138 137 138 137 135 136 135 135 133 128 125 122 123
149 142 115 107 102 99 96 93 90 93 95 97 101 103 106 115 121 120 124 125 123 123 122 121 125 127 128 130 133 136 136 135 136 136 135 135 135 134 132 128 127 127 127
135 132 120 111 105 101 98 94 92 90 90 95 100 103 105 113 118 120 122 123 121 119 120 121 125 127 126 127 129 132 133 135 135 135 132 128 132 132 131 129 129 129 129
134 128 120 115 109 103 99 98 96 94 92 94 99 103 107 111 115 118 121 120 119 117 118 120 123 124 122 123 124 127 131 132 132 132 126 124 131 134 133 134 134 132 132
125 127 126 118 112 106 102 98 98 98 97 99 101 104 108 112 115 118 120 121 120 119 119 120 122 122 122 122 121 124 127 128 130 125 114 116 125 136 137 138 138 137 137
125 132 131 121 116 111 106 100 101 101 101 102 105 106 111 117 119 120 120 120 121 121 123 123 123 123 124 124 123 123 123 126 126 123 125 126 128 136 140 142 142 142 141
132 133 133 123 121 117 112 106 105 106 106 108 110 109 111 116 120 120 121 123 123 124 126 126 125 127 129 129 127 128 128 129 127 130 133 137 143 143 146 148 149 148 146
137 139 132 130 127 122 117 114 110 110 110 111 115 116 116 118 119 122 125 126 127 127 129 130 131 133 135 134 133 134 133 136 137 139 137 141 150 150 151 153 152 150 151
134 136 137 142 134 129 125 122 117 113 110 113 121 123 121 122 124 125 128 127 129 130 133 136 138 139 140 139 138 141 143 144 136 143 151 153 159 158 157 156 153 151 153
128 136 139 141 139 136 130 130 128 122 117 117 124 127 126 125 127 128 128 132 135 138 141 144 145 145 145 146 149 151 147 142 144 148 150 163 164 162 160 160 159 159 159
131 141 145 144 146 144 136 135 133 131 127 122 120 123 121 114 122 130 136 141 144 148 152 153 156 155 155 160 168 165 153 143 147 148 159 166 166 167 167 166 166 167 168
150 155 155 148 150 152 144 133 123 123 119 113 109 116 113 119 131 137 144 153 157 161 163 168 173 168 166 166 173 170 145 142 142 156 168 169 170 171 172 172 173 176 177
156 154 155 150 146 143 135 135 123 112 110 110 116 120 119 114 121 121 127 150 161 169 174 179 186 181 175 167 169 148 152 147 148 165 169 173 174 176 177 177 179 182 184
147 149 150 145 135 135 134 137 135 129 126 123 131 133 126 119 123 138 144 158 166 174 180 177 173 185 185 179 165 148 148 149 156 157 174 176 177 178 180 180 182 184 187
136 137 141 132 131 135 135 144 138 143 150 148 133 131 130 134 145 156 167 172 180 171 167 166 179 178 178 175 170 157 156 154 158 164 175 180 180 185 187 186 189 191 193
141 144 143 136 136 131 131 133 134 145 143 132 138 148 144 143 146 147 150 161 169 172 165 164 173 168 162 157 169 167 161 161 165 167 166 182 186 190 193 196 199 201 202
149 148 147 144 138 134 134 138 132 144 143 137 149 149 148 147 153 146 138 154 185 169 152 143 143 138 155 160 171 175 163 168 171 172 175 182 193 200 202 203 204 205 209
149 149 157 147 138 138 139 141 135 144 144 149 152 146 154 151 147 137 144 181 184 158 145 139 133 138 157 170 182 199 181 173 177 179 179 185 191 203 208 208 208 207 212
154 154 155 144 143 144 139 137 133 132 140 153 150 153 161 153 143 136 145 164 143 131 133 155 147 155 166 184 201 199 192 188 186 187 188 191 197 207 204 209 210 214 218
156 153 151 148 151 144 130 115 104 99 124 148 157 165 158 159 148 138 140 148 133 122 124 138 149 154 173 182 192 179 204 197 190 196 199 195 198 208 200 204 209 222 222
153 151 152 151 158 147 137 139 134 156 170 182 189 177 169 163 149 143 135 142 143 145 163 161 152 148 163 142 104 22 341 286 206 213 210 198 208 208 199 205 206 211 221
164 162 159 162 164 162 161 162 159 156 174 181 188 168 166 156 156 157 146 154 156 145 145 156 149 149 180 146 134 111 356 345 323 247 218 211 220 207 205 207 201 205 216
172 172 170 170 166 166 157 138 119 79 46 50 77 170 188 157 153 148 145 152 154 155 175 187 163 158 176 239 150 149 157 221 292 316 256 230 223 214 215 208 203 208 212
178 173 167 166 164 165 157 152 152 156 171 199 187 178 192 168 159 158 148 152 148 149 166 184 153 151 148 187 257 189 175 166 162 307 323 293 252 226 227 221 218 215 213
172 166 162 158 160 163 162 166 164 169 182 178 148 141 164 171 163 157 148 146 141 147 157 151 132 144 158 162 167 164 135 86 141 155 266 307 315 280 233 215 210 210 206
170 166 162 159 166 168 166 167 169 171 171 157 156 159 173 169 170 147 141 138 144 146 154 164 161 153 160 157 163 158 157 159 183 167 207 257 285 290 278 242 217 215 206